Location: Newark
(25.0000°N, 73.5000°E)
Time: 10:24:47
(UTC+00:00)

Altair - Pass Details

Date: 03 March 2021
Orbit: 1501 x 1683 km, 47.2° (Epoch: 15 April)

Event Time Altitude Azimuth Distance (km) Brightness Sun altitude
Rises 23:22:20 0° 287° (WNW) 4,853 - -28.8°
Reaches altitude 10° 23:27:33 10° 264° (W) 3,896 - -27.7°
Maximum altitude 23:32:08 14° 236° (WSW) 3,589 - -26.6°
Drops below altitude 10° 23:36:47 10° 208° (SSW) 3,928 - -25.6°
Exits shadow 23:36:52 10° 208° (SSW) 3,940 9.3 -25.5°
Sets 23:42:11 0° 185° (S) 4,921 10.1 -24.3°
